• în România
  • Lista ţărilor
  • Pe 7 zile
  • Temperatura apei
  • Hartă satelitară
  • Meteo pe hartă
  • Widget-uri
  • user-avatar
    Intrare

    Meteo pe oră la Sarafovo

    Astăzi, 19 Iunie, Marţi

    Timp Temperatura Precipitaţii Vânt Presiune Umiditate
    00:00 +19°C° 0 mm 3 m/s 755 mmHg 79%
    01:00 +19°C° 0 mm 3 m/s 755 mmHg 79%
    02:00 +18°C° 0 mm 3 m/s 755 mmHg 83%
    03:00 +18°C° 0 mm 4 m/s 755 mmHg 84%
    04:00 +18°C° 0 mm 4 m/s 755 mmHg 84%
    05:00 +18°C° 0 mm 4 m/s 756 mmHg 85%
    06:00 +20°C° 0 mm 5 m/s 756 mmHg 75%
    07:00 +22°C° 0 mm 5 m/s 756 mmHg 65%
    08:00 +25°C° 0 mm 5 m/s 756 mmHg 55%
    09:00 +27°C° 0 mm 6 m/s 756 mmHg 48%
    10:00 +29°C° 0 mm 6 m/s 757 mmHg 41%
    11:00 +30°C° 0 mm 6 m/s 757 mmHg 35%
    12:00 +32°C° 0 mm 6 m/s 757 mmHg 33%
    13:00 +32°C° 0 mm 6 m/s 757 mmHg 32%
    14:00 +33°C° 0 mm 7 m/s 757 mmHg 31%
    15:00 +32°C° 0 mm 6 m/s 757 mmHg 32%
    16:00 +32°C° 0 mm 6 m/s 757 mmHg 33%
    17:00 +30°C° 0 mm 6 m/s 757 mmHg 35%
    18:00 +28°C° 0 mm 5 m/s 757 mmHg 43%
    19:00 +25°C° 0 mm 4 m/s 757 mmHg 51%
    20:00 +22°C° 0 mm 3 m/s 757 mmHg 59%
    21:00 +21°C° 0 mm 3 m/s 757 mmHg 63%
    22:00 +20°C° 0 mm 3 m/s 758 mmHg 66%
    23:00 +20°C° 0 mm 3 m/s 758 mmHg 70%

    Mâine, 20 Iunie, Miercuri

    Timp Temperatura Precipitaţii Vânt Presiune Umiditate
    00:00 +19°C° 0 mm 3 m/s 758 mmHg 69%
    01:00 +19°C° 0 mm 3 m/s 758 mmHg 68%
    02:00 +19°C° 0 mm 3 m/s 758 mmHg 67%
    03:00 +18°C° 0 mm 3 m/s 758 mmHg 65%
    04:00 +18°C° 0 mm 4 m/s 759 mmHg 64%
    05:00 +18°C° 0 mm 4 m/s 759 mmHg 63%
    06:00 +20°C° 0 mm 4 m/s 759 mmHg 57%
    07:00 +23°C° 0 mm 4 m/s 759 mmHg 52%
    08:00 +26°C° 0 mm 5 m/s 759 mmHg 46%
    09:00 +28°C° 0 mm 5 m/s 759 mmHg 42%
    10:00 +30°C° 0 mm 5 m/s 759 mmHg 38%
    11:00 +33°C° 0 mm 6 m/s 759 mmHg 34%
    12:00 +33°C° 0 mm 6 m/s 759 mmHg 33%
    13:00 +33°C° 0 mm 6 m/s 759 mmHg 32%
    14:00 +34°C° 0 mm 6 m/s 759 mmHg 31%
    15:00 +33°C° 0 mm 6 m/s 759 mmHg 33%
    16:00 +33°C° 0 mm 5 m/s 759 mmHg 34%
    17:00 +32°C° 0 mm 5 m/s 759 mmHg 35%
    18:00 +28°C° 0 mm 4 m/s 759 mmHg 43%
    19:00 +26°C° 0 mm 4 m/s 759 mmHg 52%
    20:00 +24°C° 0 mm 3 m/s 759 mmHg 60%
    21:00 +23°C° 0 mm 2 m/s 759 mmHg 63%
    22:00 +21°C° 0 mm 2 m/s 759 mmHg 66%
    23:00 +20°C° 0 mm 2 m/s 759 mmHg 69%

    Poimâine, 21 Iunie, Joi

    Timp Temperatura Precipitaţii Vânt Presiune Umiditate
    00:00 +20°C° 0 mm 2 m/s 759 mmHg 67%
    01:00 +20°C° 0 mm 2 m/s 759 mmHg 66%
    02:00 +19°C° 0 mm 2 m/s 759 mmHg 65%
    03:00 +19°C° 0 mm 2 m/s 759 mmHg 64%
    04:00 +19°C° 0 mm 2 m/s 759 mmHg 63%
    05:00 +19°C° 0 mm 3 m/s 758 mmHg 62%
    06:00 +21°C° 0 mm 3 m/s 758 mmHg 57%
    07:00 +25°C° 0 mm 3 m/s 758 mmHg 52%
    08:00 +27°C° 0 mm 3 m/s 758 mmHg 47%
    09:00 +29°C° 0 mm 4 m/s 758 mmHg 43%
    10:00 +30°C° 0 mm 4 m/s 758 mmHg 40%
    11:00 +33°C° 0 mm 4 m/s 758 mmHg 37%
    12:00 +33°C° 0 mm 4 m/s 757 mmHg 37%
    13:00 +34°C° 0 mm 4 m/s 757 mmHg 38%
    14:00 +34°C° 0 mm 4 m/s 756 mmHg 39%
    15:00 +33°C° 0 mm 4 m/s 756 mmHg 41%
    16:00 +33°C° 0 mm 4 m/s 756 mmHg 43%
    17:00 +32°C° 0 mm 4 m/s 756 mmHg 45%
    18:00 +29°C° 0,1 mm 3 m/s 756 mmHg 53%
    19:00 +27°C° 0,1 mm 2 m/s 756 mmHg 61%
    20:00 +25°C° 0,1 mm 2 m/s 756 mmHg 69%
    21:00 +24°C° 0 mm 1 m/s 756 mmHg 72%
    22:00 +23°C° 0 mm 1 m/s 756 mmHg 75%
    23:00 +20°C° 0 mm 0 m/s 756 mmHg 78%

    22 Iunie, Vineri

    Timp Temperatura Precipitaţii Vânt Presiune Umiditate
    00:00 +22°C° 0 mm 1 m/s 756 mmHg 78%
    01:00 +21°C° 0 mm 1 m/s 755 mmHg 78%
    02:00 +21°C° 0 mm 1 m/s 755 mmHg 79%
    03:00 +21°C° 0 mm 1 m/s 755 mmHg 78%
    04:00 +21°C° 0 mm 1 m/s 755 mmHg 78%
    05:00 +20°C° 0 mm 1 m/s 754 mmHg 78%
    06:00 +23°C° 0 mm 1 m/s 754 mmHg 70%
    07:00 +25°C° 0 mm 1 m/s 754 mmHg 61%
    08:00 +28°C° 0 mm 1 m/s 754 mmHg 53%
    09:00 +30°C° 0 mm 1 m/s 754 mmHg 48%
    10:00 +32°C° 0 mm 1 m/s 754 mmHg 43%
    11:00 +34°C° 0 mm 1 m/s 754 mmHg 37%
    12:00 +35°C° 0 mm 2 m/s 753 mmHg 36%
    13:00 +35°C° 0 mm 2 m/s 753 mmHg 35%
    14:00 +36°C° 0 mm 3 m/s 752 mmHg 34%
    15:00 +35°C° 0 mm 3 m/s 752 mmHg 36%
    16:00 +34°C° 0 mm 3 m/s 752 mmHg 38%
    17:00 +33°C° 0 mm 3 m/s 752 mmHg 41%
    18:00 +30°C° 0 mm 3 m/s 752 mmHg 46%
    19:00 +28°C° 0 mm 3 m/s 752 mmHg 51%
    20:00 +26°C° 0 mm 3 m/s 752 mmHg 57%
    21:00 +25°C° 0,2 mm 3 m/s 752 mmHg 61%
    22:00 +25°C° 0,2 mm 2 m/s 752 mmHg 66%
    23:00 +24°C° 0,2 mm 2 m/s 752 mmHg 70%

    23 Iunie, Sâmbătă

    Timp Temperatura Precipitaţii Vânt Presiune Umiditate
    00:00 +22°C° 0,6 mm 3 m/s 753 mmHg 75%
    01:00 +22°C° 0,6 mm 3 m/s 753 mmHg 80%
    02:00 +21°C° 0,6 mm 4 m/s 753 mmHg 84%
    03:00 +21°C° 0,4 mm 5 m/s 753 mmHg 86%
    04:00 +20°C° 0,4 mm 6 m/s 754 mmHg 87%
    05:00 +19°C° 0,4 mm 6 m/s 754 mmHg 88%
    06:00 +18°C° 0,1 mm 7 m/s 755 mmHg 84%
    07:00 +18°C° 0,1 mm 7 m/s 755 mmHg 80%
    08:00 +20°C° 0,1 mm 7 m/s 756 mmHg 75%
    09:00 +21°C° 0 mm 7 m/s 757 mmHg 70%
    10:00 +22°C° 0 mm 7 m/s 757 mmHg 65%
    11:00 +23°C° 0 mm 6 m/s 757 mmHg 60%
    12:00 +24°C° 0 mm 6 m/s 757 mmHg 57%
    13:00 +26°C° 0 mm 6 m/s 757 mmHg 53%
    14:00 +27°C° 0 mm 6 m/s 757 mmHg 50%
    15:00 +27°C° 0 mm 6 m/s 757 mmHg 51%
    16:00 +26°C° 0 mm 6 m/s 758 mmHg 51%
    17:00 +26°C° 0 mm 6 m/s 758 mmHg 52%
    18:00 +23°C° 0 mm 5 m/s 758 mmHg 55%
    19:00 +21°C° 0 mm 5 m/s 758 mmHg 59%
    20:00 +20°C° 0 mm 4 m/s 759 mmHg 62%
    21:00 +19°C° 0 mm 4 m/s 759 mmHg 64%
    22:00 +18°C° 0 mm 4 m/s 759 mmHg 65%
    23:00 +17°C° 0 mm 3 m/s 759 mmHg 66%

    24 Iunie, Duminică

    Timp Temperatura Precipitaţii Vânt Presiune Umiditate
    00:00 +17°C° 0,1 mm 3 m/s 759 mmHg 67%
    01:00 +17°C° 0,1 mm 3 m/s 759 mmHg 68%
    02:00 +16°C° 0,1 mm 3 m/s 759 mmHg 69%
    03:00 +15°C° 0,1 mm 4 m/s 760 mmHg 71%
    04:00 +15°C° 0,1 mm 4 m/s 760 mmHg 72%
    05:00 +15°C° 0,1 mm 4 m/s 760 mmHg 73%
    06:00 +17°C° 0 mm 4 m/s 760 mmHg 71%
    07:00 +17°C° 0 mm 5 m/s 760 mmHg 69%
    08:00 +19°C° 0 mm 5 m/s 760 mmHg 67%
    09:00 +20°C° 0 mm 5 m/s 760 mmHg 63%
    10:00 +21°C° 0 mm 5 m/s 760 mmHg 60%
    11:00 +22°C° 0 mm 5 m/s 760 mmHg 56%
    12:00 +23°C° 0 mm 5 m/s 760 mmHg 54%
    13:00 +25°C° 0 mm 5 m/s 760 mmHg 51%
    14:00 +26°C° 0 mm 5 m/s 759 mmHg 49%
    15:00 +26°C° 0 mm 5 m/s 759 mmHg 50%
    16:00 +26°C° 0 mm 5 m/s 759 mmHg 51%
    17:00 +26°C° 0 mm 5 m/s 759 mmHg 53%
    18:00 +23°C° 0 mm 5 m/s 760 mmHg 61%
    19:00 +22°C° 0 mm 4 m/s 760 mmHg 68%
    20:00 +20°C° 0 mm 4 m/s 760 mmHg 76%
    21:00 +19°C° 0 mm 3 m/s 760 mmHg 80%
    22:00 +18°C° 0 mm 3 m/s 760 mmHg 84%
    23:00 +18°C° 0 mm 3 m/s 760 mmHg 88%
    Arată mai mult